Grand Rapids, MI

5:23 AM EDT on March 23, 2017 (GMT -0400)
Gerald R. Ford International

Weather History for KGRR - January, 2013

Change the Weather History Date:

Wednesday, January 30, 2013

  Actual Average Record
Temperature  
Mean Temperature 40 °F 24 °F  
Max Temperature 54 °F 31 °F 54 °F (2013)
Min Temperature 26 °F 18 °F -22 °F (1951)
Degree Days  
Heating Degree Days 25 41  
Month to date heating degree days 1094 1221  
Since 1 July heating degree days 3322 3670  
Cooling Degree Days 0 0  
Month to date cooling degree days 0 0  
Year to date cooling degree days 0 0  
Moisture  
Dew Point 42 °F    
Average Humidity 89    
Maximum Humidity 96    
Minimum Humidity 81    
Precipitation  
Precipitation 0.67 in 0.05 in 1.03 in (1947)
Month to date precipitation 3.82 2.03  
Year to date precipitation 3.82 2.03  
Snow  
Snow 0.20 in 0.70 in 5.50 in (1900)
Month to date snowfall 12.4 20.2  
Since 1 July snowfall 19.9 49.4  
Snow Depth 0.00 in    
Sea Level Pressure  
Sea Level Pressure 29.28 in    
Wind  
Wind Speed 11 mph (WSW)    
Max Wind Speed 28 mph    
Max Gust Speed 38 mph    
Visibility 4 miles    
Events Fog , Rain , Snow    
T = Trace of Precipitation, MM = Missing Value Source: NWS Daily Summary

Daily Weather History Graph

Daily Weather History Graph

Search for Another Location

Airport or City:

Trip Planner

Search our weather history database for the weather conditions in past years. The results will help you decide how hot, cold, wet, or windy it might be!

Date:

Astronomy

Jan. 30, 2013 Rise Set
Actual Time 7:58 AM EST 5:52 PM EST
Civil Twilight 7:28 AM EST 6:22 PM EST
Nautical Twilight 6:54 AM EST 6:56 PM EST
Astronomical Twilight 6:21 AM EST 7:30 PM EST
Moon 9:58 PM EST (1/30) 9:19 AM EST (1/30)
Length of Visible Light 10h 54m
Length of Day
9h 54m
Waning Gibbous, 88% of the Moon is Illuminated
Jan 30
Waning Gibbous
Feb 3
Last Quarter
Feb 10
New
Feb 17
First Quarter
Feb 25
Full

Hourly Weather History & Observations

Time (EST) Temp. Windchill Dew Point Humidity Pressure Visibility Wind Dir Wind Speed Gust Speed Precip Events Conditions
12:18 AM 53.6 °F - 51.8 °F 94% 29.38 in 7.0 mi West 9.2 mph - 0.01 in Rain Light Rain
12:25 AM 53.6 °F - 51.8 °F 94% 29.37 in 7.0 mi WNW 10.4 mph - 0.01 in Rain Light Rain
12:53 AM 52.0 °F - 50.0 °F 93% 29.39 in 4.0 mi West 11.5 mph - 0.02 in Rain Light Rain
12:57 AM 51.8 °F - 50.0 °F 94% 29.38 in 3.0 mi West 11.5 mph - 0.01 in Rain Rain
1:02 AM 51.8 °F - 50.0 °F 94% 29.38 in 2.5 mi West 8.1 mph - 0.03 in Rain Rain
1:08 AM 51.8 °F - 50.0 °F 94% 29.38 in 3.0 mi West 9.2 mph - 0.04 in Rain Rain
1:53 AM 51.1 °F - 48.9 °F 92% 29.37 in 3.0 mi West 8.1 mph - 0.11 in Rain Light Rain
2:12 AM 50.0 °F - 48.2 °F 94% 29.36 in 2.5 mi West 5.8 mph - 0.03 in Rain Rain
2:33 AM 48.2 °F - 48.2 °F 100% 29.36 in 1.5 mi West 5.8 mph - N/A Rain Rain
2:40 AM 48.2 °F - 48.2 °F 100% 29.36 in 3.0 mi WSW 6.9 mph - 0.08 in Rain Rain
2:45 AM 48.2 °F - 48.2 °F 100% 29.35 in 1.8 mi WSW 5.8 mph - 0.09 in Rain Rain
2:53 AM 48.9 °F - 46.9 °F 93% 29.35 in 0.8 mi WSW 5.8 mph - 0.11 in Rain Rain
3:06 AM 48.2 °F - 48.2 °F 100% 29.34 in 1.0 mi Calm Calm - 0.03 in Rain Rain
3:17 AM 48.2 °F - 46.4 °F 93% 29.33 in 0.8 mi South 3.5 mph - 0.04 in Rain Light Rain
3:53 AM 48.0 °F - 46.9 °F 96% 29.33 in 0.8 mi South 5.8 mph - 0.09 in Rain Light Rain
4:04 AM 48.2 °F - 46.4 °F 93% 29.33 in 1.8 mi WSW 4.6 mph - 0.01 in Rain Light Rain
4:11 AM 48.2 °F - 46.4 °F 93% 29.33 in 2.5 mi West 5.8 mph - 0.02 in Rain Rain
4:21 AM 48.2 °F - 46.4 °F 93% 29.32 in 1.0 mi SW 5.8 mph - 0.05 in Rain Rain
4:35 AM 48.2 °F - 48.2 °F 100% 29.34 in 3.0 mi WSW 3.5 mph - 0.08 in Rain Rain
4:42 AM 48.2 °F - 46.4 °F 93% 29.34 in 2.5 mi WSW 6.9 mph - 0.09 in Rain Rain
4:53 AM 48.0 °F - 46.9 °F 96% 29.35 in 2.5 mi SW 6.9 mph - 0.12 in Rain Rain
5:00 AM 48.2 °F - 46.4 °F 93% 29.35 in 2.5 mi WSW 5.8 mph - 0.02 in Rain Rain
5:10 AM 48.2 °F - 46.4 °F 93% 29.35 in 1.5 mi SSW 6.9 mph - 0.04 in Rain Rain
5:24 AM 48.2 °F - 46.4 °F 93% 29.34 in 3.0 mi South 8.1 mph - 0.05 in Rain Light Rain
5:43 AM 48.2 °F - 46.4 °F 93% 29.32 in 2.0 mi SSE 4.6 mph - 0.06 in Rain Light Rain
5:51 AM 48.2 °F - 46.4 °F 93% 29.31 in 1.0 mi South 3.5 mph - 0.06 in Rain Light Rain
5:53 AM 48.9 °F - 46.9 °F 93% 29.31 in 1.0 mi South 3.5 mph - 0.06 in Rain Light Rain
6:13 AM 48.2 °F - 46.4 °F 93% 29.29 in 0.5 mi SW 4.6 mph - 0.01 in Fog Fog
6:28 AM 48.2 °F - 46.4 °F 93% 29.28 in 0.2 mi Calm Calm - 0.01 in Fog Fog
6:53 AM 48.2 °F - 46.4 °F 93% 29.30 in 0.2 mi SW 6.9 mph - N/A Fog Fog
7:22 AM 46.4 °F 42.4 °F 46.4 °F 100% 29.28 in 0.2 mi West 8.1 mph - N/A Fog Fog
7:53 AM 46.0 °F - 45.0 °F 96% 29.26 in 0.2 mi Calm Calm - 0.00 in Fog , Rain Light Rain
8:00 AM 46.4 °F 44.3 °F 44.6 °F 93% 29.29 in 0.5 mi SW 4.6 mph - N/A Fog Fog
8:15 AM 46.4 °F 44.3 °F 44.6 °F 93% 29.28 in 0.2 mi West 4.6 mph - 0.00 in Fog Fog
8:53 AM 42.1 °F 36.6 °F 41.0 °F 96% 29.30 in 0.8 mi NW 9.2 mph - 0.02 in Rain Light Rain
9:01 AM 42.8 °F 38.6 °F 41.0 °F 93% 29.30 in 1.2 mi NW 6.9 mph - 0.00 in Rain Light Rain
9:53 AM 39.9 °F 34.5 °F 39.0 °F 97% 29.31 in 1.5 mi NE 8.1 mph - 0.02 in   Overcast
10:53 AM 39.0 °F 34.0 °F 37.9 °F 96% 29.28 in 1.2 mi East 6.9 mph - 0.01 in   Overcast
11:53 AM 39.9 °F 33.4 °F 39.0 °F 97% 29.24 in 1.2 mi East 10.4 mph - 0.02 in Rain Light Rain
12:53 PM 42.1 °F 37.7 °F 39.9 °F 92% 29.20 in 1.5 mi ESE 6.9 mph - 0.03 in Rain Light Rain
1:08 PM 42.8 °F 39.3 °F 39.2 °F 87% 29.18 in 2.0 mi ESE 5.8 mph - 0.01 in Rain Light Rain
1:26 PM 42.8 °F 38.6 °F 39.2 °F 87% 29.18 in 4.0 mi SE 6.9 mph - 0.01 in   Overcast
1:53 PM 42.1 °F 37.7 °F 41.0 °F 96% 29.17 in 6.0 mi ESE 6.9 mph - 0.01 in Rain Light Rain
2:23 PM 44.6 °F 39.7 °F 42.8 °F 93% 29.14 in 3.0 mi SSE 9.2 mph - 0.00 in Rain Light Rain
2:46 PM 48.2 °F - 46.4 °F 93% 29.14 in 2.0 mi SSW 15.0 mph - 0.00 in Rain Light Rain
2:53 PM 48.9 °F - 46.0 °F 90% 29.14 in 1.5 mi SSW 12.7 mph - 0.01 in Rain Light Rain
3:05 PM 48.2 °F - 46.4 °F 93% 29.12 in 4.0 mi SW 17.3 mph 24.2 mph 0.02 in Rain Light Rain
3:42 PM 48.2 °F - 44.6 °F 87% 29.12 in 10.0 mi SW 17.3 mph 25.3 mph 0.02 in   Overcast
3:53 PM 48.9 °F - 44.1 °F 83% 29.13 in 10.0 mi SW 13.8 mph 26.5 mph 0.02 in   Overcast
4:20 PM 46.4 °F 39.8 °F 42.8 °F 87% 29.12 in 7.0 mi WSW 16.1 mph - 0.01 in Rain Light Rain
4:30 PM 44.6 °F 37.2 °F 42.8 °F 93% 29.11 in 7.0 mi WSW 17.3 mph - 0.01 in   Overcast
4:53 PM 43.0 °F 34.2 °F 39.9 °F 89% 29.14 in 6.0 mi WSW 20.7 mph - 0.01 in   Overcast
5:53 PM 39.0 °F 29.3 °F 36.0 °F 89% 29.16 in 10.0 mi WSW 19.6 mph - 0.00 in   Overcast
6:53 PM 36.0 °F 28.5 °F 33.1 °F 89% 29.17 in 10.0 mi West 10.4 mph - N/A   Overcast
7:22 PM 35.6 °F 26.2 °F 32.0 °F 87% 29.18 in 10.0 mi WNW 15.0 mph - N/A   Overcast
7:40 PM 33.8 °F 23.9 °F 30.2 °F 87% 29.19 in 10.0 mi WNW 15.0 mph 26.5 mph N/A   Overcast
7:49 PM 33.8 °F 25.3 °F 30.2 °F 87% 29.19 in 10.0 mi WNW 11.5 mph 20.7 mph N/A   Overcast
7:53 PM 34.0 °F 24.2 °F 30.0 °F 85% 29.21 in 10.0 mi WNW 15.0 mph 23.0 mph N/A   Overcast
8:53 PM 32.0 °F 19.8 °F 28.0 °F 85% 29.25 in 9.0 mi WNW 20.7 mph 28.8 mph 0.00 in Snow Light Snow
9:39 PM 30.2 °F 17.8 °F 24.8 °F 80% 29.26 in 4.0 mi WNW 19.6 mph 28.8 mph 0.00 in Snow Light Snow
9:53 PM 28.9 °F 15.4 °F 24.1 °F 82% 29.29 in 5.0 mi West 21.9 mph 32.2 mph 0.00 in Snow Light Snow
10:53 PM 27.0 °F 14.3 °F 21.9 °F 81% 29.34 in 7.0 mi WNW 17.3 mph 26.5 mph 0.00 in Snow Light Snow
11:25 PM 26.6 °F 13.1 °F 19.4 °F 74% 29.34 in 8.0 mi WNW 19.6 mph 31.1 mph 0.00 in Snow Light Snow
11:38 PM 26.6 °F 13.8 °F 19.4 °F 74% 29.35 in 2.5 mi WNW 17.3 mph 29.9 mph 0.00 in Snow Light Snow
11:53 PM 26.1 °F 14.5 °F 21.0 °F 81% 29.38 in 2.5 mi WNW 13.8 mph - 0.00 in Snow Light Snow